Home > Weather > Birmingham > Past weeks

Flag for USA Weather for the Past 2 Weeks in Birmingham, Alabama, USA

Now
55 °F

Clear.


Feels Like: 55 °F
Forecast: 50 / 68 °F
Wind: No wind

Location: Birmingham International Airport

Current Time: May 5, 2016 at 1:58:48 AM

Latest Report: May 5, 2016 at 12:53 AM


Visibility: 10 mi

Pressure: 29.84 "Hg

Humidity: 96%

Dew Point: 54 °F

Location of BirminghamLocation

Historic Weather in Birmingham — Graph

°F

Birmingham Temperature Yesterday

Maximum temperature yesterday: 73 °F (at 4:53 PM)
Minimum temperature yesterday: 52 °F (at 4:53 AM)
Average temperature yesterday: 62 °F

High & Low Weather Summary for the Past Weeks

 TemperatureHumidityPressure
High86 °F (Apr 29, 2:53 PM)100% (May 1, 10:53 PM)30.12 "Hg (May 1, 10:53 PM)
Low52 °F (Apr 23, 5:53 AM)28% (Apr 20, 2:53 PM)29.73 "Hg (May 4, 5:53 PM)
Average70 °F70%29.96 "Hg
* Reported Apr 19 11:53 PM — May 4 11:53 PM, Birmingham, Weather by CustomWeather, © 2016

Note: Actual official high and low records may vary slightly from our data, if they occured in-between our weather recording intervals... More about our weather records

Advertising

Birmingham Weather History for the Previous 24 Hours

Scroll right to see more
 ConditionsComfort  
Time TempWeatherWind HumidityBarometerVisibility
11:53 PM
Wed, May 4
56 °FPassing clouds.No wind97%29.83 "Hg10 mi
10:53 PM56 °FPassing clouds.3 mph97%29.83 "Hg10 mi
9:53 PM58 °FClear.No wind93%29.82 "Hg10 mi
8:53 PM59 °FPassing clouds.5 mph90%29.80 "Hg10 mi
7:53 PM59 °FRain. Fog.12 mph90%29.80 "Hg5 mi
6:53 PM70 °FBroken clouds.12 mph47%29.74 "Hg10 mi
5:53 PM72 °FPassing clouds.15 mph41%29.73 "Hg10 mi
4:53 PM73 °FScattered clouds.14 mph40%29.75 "Hg10 mi
3:53 PM72 °FScattered clouds.14 mph41%29.76 "Hg10 mi
2:53 PM72 °FPartly sunny.13 mph40%29.79 "Hg10 mi
1:53 PM70 °FPartly sunny.9 mph39%29.82 "Hg10 mi
12:53 PM70 °FScattered clouds.12 mph38%29.84 "Hg10 mi
11:53 AM69 °FScattered clouds.9 mph38%29.86 "Hg10 mi
10:53 AM66 °FScattered clouds.12 mph50%29.88 "Hg10 mi
9:53 AM64 °FPassing clouds.13 mph61%29.88 "Hg10 mi
8:53 AM60 °FPassing clouds.8 mph72%29.89 "Hg10 mi
7:53 AM56 °FSunny.5 mph84%29.90 "Hg10 mi
6:53 AM53 °FClear.No wind93%29.91 "Hg10 mi
5:53 AM52 °FClear.No wind93%29.90 "Hg10 mi
4:53 AM52 °FClear.No wind93%29.90 "Hg10 mi
3:53 AM54 °FPassing clouds.3 mph86%29.90 "Hg10 mi
2:53 AM55 °FClear.3 mph87%29.89 "Hg10 mi
1:53 AM56 °FPassing clouds.5 mph84%29.90 "Hg10 mi
Weather by CustomWeather, © 2016

See weather overviewHow to use our weather pages